Location: Drummondville
(45.8830°N, 72.4830°W)
Time: 14:09:07
(UTC-05:00)

N. Korean satellite - Pass Details

Date: 19 November 2017
Orbit: 460 x 514 km, 97.2° (Epoch: 20 November)

Event Time Altitude Azimuth Distance (km) Brightness Sun altitude
Rises 18:23:23 0° 191° (S) 2,487 10.4 -22.2°
Reaches altitude 10° 18:25:36 10° 203° (SSW) 1,624 9.6 -22.6°
Maximum altitude 18:28:39 28° 265° (W) 920 8.6 -23.1°
Drops below altitude 10° 18:31:45 10° 326° (NW) 1,660 9.6 -23.6°
Sets 18:34:03 0° 338° (NNW) 2,556 10.5 -24.0°
